Find Starlink 32833

NORAD ID: 62873 Int'l Des: 2025-022 Owner: SPXS Country: US Constellation: starlink operational
LEOCIRCULAR

リアルタイム位置

3D地球を読み込み中...

Starlink 32833について

説明を読み込み中...

次回通過

Passes for default location (London). Set your location on the main map for personalized predictions.

高度履歴

Loading altitude history...

軌道要素

1 62873U 25022V 26124.02676020 .00024340 00000-0 83088-3 0 9998
2 62873 53.1608 232.4954 0001566 100.1469 259.9708 15.30213033 70377
Epoch: May 4, 2026 • Age: 11 hours

現在のステータス

高度 494.6 km
速度 7.62 km/s
衛星直下点 -53.10°S, 116.61°E
打ち上げ日 Feb 2, 2025
運用期間 1.2 years
タイプ internet

技術仕様

分類 Payload
質量 730.00 kg
乾燥質量 700.00 kg
総質量 730.00 kg
長さ 0.30 m
直径 4.10 m
スパン 29.00 m
形状 Box + pan
製造者 SPXS
バスタイプ Starlink V2M
フェーズステータス In Orbit
所有者/国 SPXS/US

Most Searched